Weather History for Jerome, ID

Change the Weather History Date:

Thursday, February 20, 2014

  Actual Average Record
Temperature  
Mean Temperature 34 °F 32 °F  
Max Temperature 43 °F 41 °F 69 °F (1981)
Min Temperature 25 °F 23 °F 4 °F (1952)
Degree Days  
Heating Degree Days 31 33  
Month to date heating degree days 639 710  
Since 1 July heating degree days 4486 4635  
Cooling Degree Days 0 0  
Month to date cooling degree days 0 0  
Year to date cooling degree days 0 0  
Moisture  
Dew Point 23 °F    
Average Humidity 66    
Maximum Humidity 88    
Minimum Humidity 43    
Precipitation  
Precipitation 0.00 in 0.03 in 0.45 in (1992)
Month to date precipitation 1.38 0.60  
Year to date precipitation 2.12 1.66  
Sea Level Pressure  
Sea Level Pressure 30.22 in    
Wind  
Wind Speed 10 mph (SW)    
Max Wind Speed 22 mph    
Max Gust Speed 28 mph    
Visibility 10 miles    
Events      
T = Trace of Precipitation, MM = Missing Value Source: NWS Daily Summary

Daily Weather History Graph

Daily Weather History Graph

Search for Another Location

Airport:

Trip Planner

Search our weather history database for the weather conditions in past years. The results will help you decide how hot, cold, wet, or windy it might be!

Date:

Astronomy

Feb. 20, 2014 Rise Set
Actual Time 7:27 AM MST 6:16 PM MST
Civil Twilight 6:58 AM MST 6:44 PM MST
Nautical Twilight 6:25 AM MST 7:17 PM MST
Astronomical Twilight 5:53 AM MST 7:50 PM MST
Moon No Moon Rise 10:04 AM MST (2/20)
Length of Visible Light 11h 46m
Length of Day
10h 48m
Waning Gibbous, 70% of the Moon is Illuminated
Feb 20
Waning Gibbous
Feb 22
Last Quarter
Mar 1
New
Mar 8
First Quarter
Mar 16
Full

Hourly Weather History & Observations

Time (MST) Temp. Windchill Dew Point Humidity Pressure Visibility Wind Dir Wind Speed Gust Speed Precip Events Conditions
12:53 AM 26.1 °F 17.6 °F 21.0 °F 81% 30.22 in 10.0 mi SW 8.1 mph - N/A   Clear
1:53 AM 25.0 °F 16.3 °F 21.0 °F 85% 30.22 in 10.0 mi SW 8.1 mph - N/A   Clear
2:53 AM 26.1 °F 17.6 °F 21.0 °F 81% 30.26 in 10.0 mi WSW 8.1 mph - N/A   Clear
3:53 AM 25.0 °F 15.5 °F 21.0 °F 85% 30.27 in 10.0 mi SW 9.2 mph - N/A   Clear
4:53 AM 25.0 °F 18.1 °F 21.0 °F 85% 30.28 in 10.0 mi South 5.8 mph - N/A   Partly Cloudy
5:53 AM 25.0 °F 15.5 °F 21.0 °F 85% 30.28 in 10.0 mi South 9.2 mph - N/A   Clear
6:53 AM 25.0 °F 18.1 °F 21.0 °F 85% 30.28 in 10.0 mi SSW 5.8 mph - N/A   Clear
7:53 AM 26.1 °F 20.5 °F 21.0 °F 81% 30.29 in 10.0 mi South 4.6 mph - N/A   Clear
8:53 AM 28.9 °F 21.9 °F 21.9 °F 75% 30.30 in 10.0 mi SW 6.9 mph - N/A   Clear
10:53 AM 35.1 °F 25.9 °F 19.9 °F 54% 30.29 in 10.0 mi WSW 13.8 mph - N/A   Unknown
11:53 AM 37.9 °F 29.6 °F 21.0 °F 51% 30.27 in 10.0 mi SW 13.8 mph 20.7 mph N/A   Clear
12:53 PM 37.9 °F 28.9 °F 19.0 °F 47% 30.24 in 10.0 mi SSW 16.1 mph - N/A   Partly Cloudy
1:53 PM 39.9 °F 32.1 °F 19.9 °F 45% 30.20 in 10.0 mi WSW 13.8 mph 21.9 mph N/A   Scattered Clouds
2:53 PM 43.0 °F 35.1 °F 21.0 °F 42% 30.17 in 10.0 mi WSW 17.3 mph - N/A   Partly Cloudy
3:53 PM 42.1 °F 33.1 °F 21.9 °F 45% 30.16 in 10.0 mi WSW 20.7 mph 25.3 mph N/A   Clear
4:53 PM 39.9 °F 32.5 °F 21.9 °F 49% 30.16 in 10.0 mi West 12.7 mph - N/A   Partly Cloudy
5:53 PM 37.0 °F 30.4 °F 23.0 °F 57% 30.16 in 10.0 mi WSW 9.2 mph - N/A   Mostly Cloudy
6:53 PM 36.0 °F 28.5 °F 24.1 °F 62% 30.17 in 10.0 mi WSW 10.4 mph - N/A   Overcast
7:53 PM 35.1 °F 27.4 °F 26.1 °F 70% 30.16 in 10.0 mi WSW 10.4 mph - N/A   Overcast
8:53 PM 34.0 °F 28.0 °F 28.0 °F 79% 30.17 in 10.0 mi SSW 6.9 mph - N/A   Overcast
9:53 PM 34.0 °F 28.8 °F 28.0 °F 79% 30.17 in 10.0 mi SSW 5.8 mph - N/A   Mostly Cloudy
10:53 PM 33.1 °F 24.4 °F 28.0 °F 82% 30.15 in 10.0 mi WSW 11.5 mph - N/A   Partly Cloudy
11:53 PM 33.1 °F 25.5 °F 28.0 °F 82% 30.14 in 10.0 mi WSW 9.2 mph - N/A   Scattered Clouds